Regional Weather Roundup
Issued by NWS

Home | Current Version | Previous Version | Graphics & Text | Print | Product List | Glossary On
Versions: 1 2 3 4 5 6 7 8 9 10 11 12 13 14 15 16 17 18 19 20 21 22 23 24 25 26 27 28 29 30 31 32 33 34 35 36 37 38 39 40 41 42 43 44 45 46 47 48 49 50
610
ASUS43 KFSD 270110
RWRSD

WEATHER ROUNDUP FOR SOUTH DAKOTA
NATIONAL WEATHER SERVICE SIOUX FALLS SD
800 PM CDT FRI MAY 26 2017

NOTE: "FAIR" INDICATES FEW OR NO CLOUDS BELOW 12,000 FEET WITH NO
SIGNIFICANT WEATHER AND/OR OBSTRUCTIONS TO VISIBILITY.


SDZ001>005-009-010-012>017-270200-
NORTHWEST AND NORTH CENTRAL SOUTH DAKOTA

CITY           SKY/WX    TMP DP  RH WIND       PRES   REMARKS
BUFFALO          N/A     62  37  39 NW9       29.84R
FAITH            N/A     63  37  38 NW8       29.89R
MOBRIDGE       MOSUNNY   67  39  35 NW7       29.82R
$$

SDZ012>016-024>037-041>051-057-063-072>074-270200-
SOUTHWEST AND SOUTH CENTRAL SOUTH DAKOTA

CITY           SKY/WX    TMP DP  RH WIND       PRES   REMARKS
RAPID CTY ARPT LGT RAIN  56  46  69 SW6       29.94R
PIERRE         CLOUDY    67  37  33 NW12      29.85R
CUSTER         CLOUDY    45  41  86 CALM      29.96F
ELLSWORTH AFB  CLOUDY    57  44  63 SW8       29.93
PHILIP         CLOUDY    63  42  46 SW5       29.90R
PINE RIDGE     CLOUDY    57  47  69 N7        29.92R
SPEARFISH      FAIR      54  43  66 S14       29.95S
WINNER         FAIR      65  45  48 NW7       29.89R
$$

SDZ004>011-016>023-039-040-270200-
NORTHEAST SOUTH DAKOTA

CITY           SKY/WX    TMP DP  RH WIND       PRES   REMARKS
ABERDEEN       CLOUDY    67  39  35 NW7       29.82R
WATERTOWN      CLEAR     64  43  46 NW9       29.81R
BROOKINGS      CLEAR     67  44  43 NW9       29.83R
SISSETON         N/A     66  44  45 NW13      29.79R
$$

SDZ017-020-022-023-036>040-048>070-270200-
SOUTHEAST SOUTH DAKOTA

CITY           SKY/WX    TMP DP  RH WIND       PRES   REMARKS
SIOUX FALLS    PTCLDY    69  43  38 NW8       29.83R
HURON          CLEAR     65  44  46 NW7       29.83R
CHAMBERLAIN    CLOUDY    69  42  37 NW3       29.87R
MITCHELL       CLEAR     70  41  34 N9        29.83R
YANKTON        CLEAR     70  44  39 W7        29.86R
$$

ABBREVIATIONS USED IN REMARKS
   TC - TEMPERATURE IN CELSIUS
  WCI - WIND CHILL INDEX
   HX - HEAT INDEX
  VSB - VISIBILITY





USA.gov is the U.S. government's official web portal to all federal, state and local government web resources and services.